Regional Weather Roundup
Issued by NWS Charleston, SC

Current Version | Previous Version | Graphics & Text | Print | Product List | Glossary On
Versions: 1 2 3 4 5 6 7 8 9 10 11 12 13 14 15 16 17 18 19 20 21 22 23 24 25 26 27 28 29 30 31 32 33 34 35 36 37 38 39 40 41 42 43 44 45 46 47 48 49 50
000 ASUS42 KCHS 160527 RWRCHS Regional Weather Roundup National Weather Service Charleston SC 1200 AM EST SAT DEC 16 2017 NOTE: "fair" indicates few or no clouds below 12,000 feet with no significant weather and/or obstructions to visibility. Not all stations are quality controlled. Use data with caution, especially dewpoint observations. SCZ027-030-031-034>040-042>050-160600- ...Southeast South Carolina... CITY SKY/WX TMP DP RH WIND PRES REMARKS N Charleston CLOUDY 49 31 49 NW10 30.14R Waterfront Prk N/A 52 33 48 NW6 29.98R Mount Pleasant FAIR 52 34 50 NW9 30.14R Johns Island FAIR 50 32 50 NW9G16 30.15R Pinopolis N/A 50 36 57 NW10 30.05R Moncks Corner FAIR 45 27 49 CALM 30.15R Summerville FAIR 45 30 57 NW6 30.16R Beaufort MCAS MOCLDY 50 31 48 NW9 30.17R Beaufort Arpt FAIR 48 32 53 NW10 30.16R Hilton Head Is CLOUDY 50 32 50 VRB6 30.17S Walterboro PTCLDY 43 30 61 NW6 30.17S Allendale FAIR 39 27 60 CALM 30.17S ...Southern Midlands and Pee Dee... CITY SKY/WX TMP DP RH WIND PRES REMARKS Georgetown FAIR 45 34 65 NW3 30.15R Kingstree FAIR 37 34 87 CALM 30.15R Orangeburg CLEAR 41 26 55 NW7 30.17R Barnwell N/A 39 27 60 CALM 30.18S Aiken FAIR 32 27 80 W5 30.20S WCI 27 Manning FAIR N/A N/A N/A MISG 30.16R Columbia CLEAR 36 28 73 W7 30.16R WCI 30 Sumter CLEAR 42 28 57 W7 30.14R Florence CLEAR 37 32 82 CALM 30.15R Myrtle Beach CLOUDY 46 34 62 N8 30.14R N Myrtle Beach CLOUDY 45 34 65 N3 30.12R $$ GAZ063-065-086>088-099>101-113>116-118-119-134>141-150-160600- ...Southeast Georgia... CITY SKY/WX TMP DP RH WIND PRES REMARKS Savannah Arpt CLOUDY 49 31 49 NW7 30.18R Hunter AAF CLOUDY 50 31 48 NW8 N/A Fort Stewart CLOUDY 49 31 49 W6 N/A Statesboro MOCLDY 42 24 48 NW7 30.20R Sylvania PTCLDY 40 30 66 NW5 30.19S WCI 37 Claxton FAIR 47 31 53 W8 30.20R ...CSRA, Central and far Southeast Georgia... CITY SKY/WX TMP DP RH WIND PRES REMARKS Thomson CLEAR 33 23 66 NW7 30.23F WCI 27 Augusta-Bush CLEAR 37 25 61 NW6 30.19R WCI 32 Augusta-Daniel CLEAR 39 24 55 W5 30.19R WCI 36 Swainsboro FAIR 37 28 70 W5 30.21R WCI 34 Vidalia CLOUDY 43 30 61 NW5 30.20S Eastman FAIR 38 21 50 CALM 30.25S Hazlehurst FAIR 46 16 29 CALM 30.20S Alma CLOUDY 48 32 53 NW9 30.20S Waycross MOCLDY 48 30 49 N6 30.20F Jesup CLOUDY 50 32 50 NW5 30.19R Baxley CLOUDY 45 32 61 NW5 30.20F Brunswick CLOUDY 52 36 54 NW8 30.19R Saint Simons CLOUDY 53 42 66 NW8 30.17R $$ SCZ027-028-034-036>038-045-046-048>050-GAZ119-141-160600- ...Lake and Supplemental Coastal Observations... STATION/POSITION TIME TEMP WIND PRES WAVE SWELL AIR SEA DIR/SP/G HT/PER HT/PER/DIR (UTC) (F) (DEG/KT/KT) (MB) (FT/S) (FT/S/D) Winyah Bay 0430 50 360/ 4 1020.0R Lake Murray 0430 41 280/ 8/ 11 1020.3R ACE Basin NERRS 0445 49 290/ 3 1021.0R Fort Pulaski 0500 50 53 330/ 10/ 12 1021.6 Sapelo Island 0500 52 310/ 7 1022.0 $$ ANZ835-935-AMZ111-154-330-350-352-354-370-450-454-472-160600- ...C-MAN and Buoy Observations... STATION/POSITION TIME TEMP WIND PRES WAVE SWELL AIR SEA DIR/SP/G HT/PER HT/PER/DIR (UTC) (F) (DEG/KT/KT) (MB) (FT/S) (FT/S/D) Buoy 41004 0510 58 72 310/ 17/ 23 1019.7 Buoy 41008 0450 54 58 290/ 17/ 19 1021.3R 2/ 3 Folly Beach CMAN 0500 50 300/ 6/ 8 1020.9R Capers Nearshore 0508 50 56 320/ 14/ 21 1020.1R STATION/POSITION TIME TEMP WIND PRES WAVE SWELL AIR SEA DIR/SP/G HT/PER HT/PER/DIR (UTC) (F) (DEG/KT/KT) (MB) (FT/S) (FT/S/D) 5E St. Marys GA 0500 62 N/A 2/ 3 Frying Pan Buoy 0510 53 68 360/ 16/ 21 1018.8 Buoy 41025 0510 46 73 330/ 21/ 27 1018.2 Cape Lookout NC 0500 340/ 10/ 11 1019.4R Buoy 41002 0450 71 75 290/ 25/ 29 1015.9F 8/ 7 2/330/11 Buoy 41010 NOT AVBL St Augustine FL 0500 57 64 280/ 3/ 4 1021.5F $$

USA.gov is the U.S. government's official web portal to all federal, state and local government web resources and services.